This demonstration page uses our WeatherBlox Daily Observations layout. Learn more.

Left ArrowRight Arrow

40.97296, -117.73568

Hourly Observations for August 12, 2020

Temp ( °F °C ) Dew Point ( °F °C ) Humidity (%) Winds ( mph kmh ) Pressure ( in mb ) Visibility ( mi km ) Precip ( " mm )
12:56 am 00:56 Clear 65 18.3 43 6.1 45 45 SSW 9 15 29.86 1011 10 16 0.00 0.00
1:56 am 01:56 Clear 60 15.6 43 6.1 53 53 SSE 6 9 29.87 1011 10 16 0.00 0.00
2:56 am 02:56 Clear 55 12.8 43 6.1 64 64 Calm 29.87 1012 10 16 0.00 0.00
3:56 am 03:56 Clear 53 11.7 43 6.1 69 69 SE 3 6 29.88 1012 10 16 0.00 0.00
4:56 am 04:56 Clear 52 11.1 41 5 66 66 ESE 3 6 29.91 1013 10 16 0.00 0.00
5:56 am 05:56 Clear 52 11.1 40 4.4 64 64 SE 8 13 29.93 1014 10 16 0.00 0.00
6:56 am 06:56 Sunny 57 13.9 40 4.4 53 53 SSE 3 6 29.94 1014 10 16 0.00 0.00
7:56 am 07:56 Sunny 67 19.4 41 5 39 39 Calm 29.93 1013 10 16 0.00 0.00
8:56 am 08:56 Sunny 76 24.4 42 5.6 30 30 VRB 5 7 29.92 1013 10 16 0.00 0.00
9:56 am 09:56 Sunny 82 27.8 38 3.3 21 21 Calm 29.91 1013 10 16 0.00 0.00
10:56 am 10:56 Sunny 85 29.4 36 2.2 17 17 SW 8 13 29.90 1013 10 16 0.00 0.00
11:56 am 11:56 Sunny 88 31.1 29 -1.7 12 12 SW 14 22 29.90 1012 10 16 0.00 0.00
12:56 pm 12:56 Sunny 91 32.8 19 -7.2 7 7 SSW 18 30 29.87 1011 10 16 0.00 0.00
1:56 pm 13:56 Sunny 92 33.3 11 -11.7 5 5 WSW 18 30 29.86 1011 10 16 0.00 0.00
2:56 pm 14:56 Sunny 93 33.9 10 -12.2 4 4 SW 20 31 29.85 1011 10 16 0.00 0.00
3:56 pm 15:56 Sunny 94 34.4 8 -13.3 4 4 WSW 20 31 29.84 1011 10 16 0.00 0.00
4:56 pm 16:56 Sunny 93 33.9 8 -13.3 4 4 WSW 14 22 29.83 1010 10 16 0.00 0.00
5:56 pm 17:56 Sunny 89 31.7 11 -11.7 5 5 W 17 28 29.84 1011 10 16 0.00 0.00
6:56 pm 18:56 Mostly Cloudy with Haze 86 30 17 -8.3 8 8 WNW 8 13 29.85 1011 3 5 0.00 0.00
7:56 pm 19:56 Hazy 83 28.3 17 -8.3 8 8 W 8 13 29.85 1011 4 6 0.00 0.00
8:56 pm 20:56 Clear 77 25 17 -8.3 10 10 W 8 13 29.86 1011 10 16 0.00 0.00
9:56 pm 21:56 Hazy 77 25 20 -6.7 12 12 W 8 13 29.87 1012 4 6 0.00 0.00
10:56 pm 22:56 Hazy 78 25.6 22 -5.6 12 12 W 10 17 29.87 1011 6 10 0.00 0.00
11:56 pm 23:56 Clear 73 22.8 24 -4.4 16 16 Calm 29.89 1012 10 16 0.00 0.00

Powered by AerisWeather